Norfolk Island Observation History
Time Wind Speed Temp Pressure Rel. Hum Rain
05/10:00pm SW 11-18 kts 15.5°c 1019.0 hPa 74% 0.0mm
05/09:30pm SSW 10-18 kts 16.0°c 1019.1 hPa 72% 0.0mm
05/09:00pm SSW 12-17 kts 16.0°c 1019.1 hPa 69% 0.0mm
05/08:30pm SW 9-13 kts 14.6°c 1019.0 hPa 78% 0.0mm
05/08:19pm SW 9-18 kts 14.7°c 1019.1 hPa 76% 0.0mm
05/08:08pm SW 10-17 kts 14.8°c 1019.0 hPa 77% 0.0mm
05/08:00pm SW 8-14 kts 15.6°c 1019.1 hPa 72% 0.0mm
05/07:30pm SSW 13-17 kts 15.9°c 1018.9 hPa 64% 0.0mm
05/07:00pm SSW 15-21 kts 15.7°c 1018.6 hPa 74% 0.0mm
05/06:30pm SSW 12-18 kts 15.7°c 1018.2 hPa 66% 0.0mm
05/06:01pm SSW 15-25 kts 14.9°c 1018.0 hPa 76% 0.0mm
05/06:00pm SSW 14-25 kts 14.9°c 1018.0 hPa 75% 0.0mm
05/05:30pm SSW 14-19 kts 16.2°c 1017.6 hPa 64% 0.0mm
05/05:00pm SW 16-22 kts 16.2°c 1017.4 hPa 63% 0.0mm
05/04:30pm SW 14-22 kts 16.4°c 1017.1 hPa 62% 0.0mm
05/04:00pm SW 15-22 kts 16.4°c 1017.0 hPa 68% 0.0mm
05/03:30pm SW 12-17 kts 16.3°c 1017.1 hPa 67% 0.0mm
05/03:00pm SW 15-24 kts 15.5°c 1017.1 hPa 73% 0.0mm
05/02:30pm SW 12-19 kts 16.9°c 1016.8 hPa 64% 0.0mm
05/02:14pm SW 15-28 kts 16.2°c 1017.0 hPa 71% 0.0mm
05/02:00pm SW 13-20 kts 17.1°c 1016.9 hPa 66% 0.0mm
05/01:30pm SW 14-20 kts 17.4°c 1017.0 hPa 67% 0.0mm
05/01:09pm SW 15-26 kts 16.8°c 1017.0 hPa 70% 0.0mm
05/01:00pm SW 13-19 kts 17.1°c 1017.1 hPa 64% 0.0mm
05/12:30pm SW 15-24 kts 18.0°c 1017.3 hPa 64% 0.0mm
05/12:00pm SW 11-16 kts 18.2°c 1017.6 hPa 66% 0.0mm
05/11:30am SSW 15-20 kts 16.8°c 1018.0 hPa 70% 0.0mm
05/11:06am WSW 13-22 kts 17.1°c 1018.1 hPa 71% 0.0mm
05/11:00am WSW 16-22 kts 16.4°c 1018.2 hPa 71% 0.0mm
05/10:52am SW 16-26 kts 15.8°c 1018.4 hPa 76% 0.0mm
05/10:49am SW 15-26 kts 16.3°c 1018.5 hPa 71% 0.0mm
05/10:30am SW 14-18 kts 18.1°c 1018.3 hPa 60% 0.0mm
05/10:00am SW 13-20 kts 17.5°c 1018.6 hPa 65% 0.0mm
05/09:50am WSW 10-18 kts 16.7°c 1018.7 hPa 70% 0.0mm
05/09:35am SW 15-21 kts 15.2°c 1018.8 hPa 78% 0.0mm
05/09:30am WSW 15-21 kts 15.9°c 1018.8 hPa 74% 0.0mm
05/09:00am SW 13-18 kts 17.4°c 1018.9 hPa 65% 0.0mm
05/08:30am SW 12-16 kts 17.5°c 1019.0 hPa 66% 0.0mm
05/08:00am SW 13-20 kts 17.3°c 1018.9 hPa 66% 0.4mm
05/07:30am SW 12-20 kts 16.3°c 1018.5 hPa 70% 0.4mm
05/07:00am SW 11-16 kts 15.7°c 1018.3 hPa 73% 0.4mm
05/06:30am SW 12-19 kts 16.2°c 1018.0 hPa 70% 0.4mm
05/06:00am SW 13-17 kts 15.7°c 1017.8 hPa 73% 0.4mm
05/05:30am WSW 11-15 kts 15.4°c 1017.2 hPa 75% 0.4mm
05/05:00am WSW 10-17 kts 15.0°c 1017.1 hPa 73% 0.4mm
05/04:30am SW 11-18 kts 14.1°c 1016.9 hPa 81% 0.4mm
05/04:15am SW 16-30 kts 14.2°c 1016.8 hPa 78% 0.4mm
05/04:00am SW 11-22 kts 14.8°c 1016.6 hPa 76% 0.4mm
05/03:30am SW 16-24 kts 14.9°c 1016.6 hPa 74% 0.4mm
05/03:07am SW 16-27 kts 15.0°c 1016.6 hPa 70% 0.2mm
05/03:00am SW 15-20 kts 15.6°c 1016.5 hPa 74% 0.2mm
05/02:42am SW 15-25 kts 15.8°c 1016.5 hPa 67% 0.2mm
05/02:30am SW 17-22 kts 15.7°c 1016.5 hPa 67% 0.2mm
05/02:11am SW 15-25 kts 14.9°c 1016.6 hPa 75% 0.2mm
05/02:00am WSW 17-25 kts 15.4°c 1016.5 hPa 69% 0.2mm
05/01:50am WSW 16-27 kts 15.6°c 1016.5 hPa 71% 0.2mm
05/01:30am WSW 19-27 kts 15.7°c 1016.7 hPa 63% 0.2mm
05/01:19am WSW 18-28 kts 15.8°c 1016.7 hPa 69% 0.2mm
05/01:00am WSW 17-26 kts 15.9°c 1016.8 hPa 66% 0.2mm
05/12:58am WSW 16-26 kts 15.8°c 1016.8 hPa 66% 0.2mm
05/12:44am WSW 15-22 kts 14.9°c 1016.9 hPa 72% 0.2mm
05/12:37am WSW 20-30 kts 14.4°c 1017.1 hPa 77% 0.2mm
05/12:31am W 23-31 kts 14.6°c 1017.2 hPa 77% 0.2mm
05/12:30am W 22-31 kts 14.7°c 1017.2 hPa 76% 0.2mm
05/12:20am WSW 17-27 kts 16.4°c 1017.2 hPa 64% 0.2mm
05/12:00am WSW 18-26 kts 16.5°c 1017.1 hPa 62% 0.2mm
Time Wind Speed Temp Pressure Rel. Hum Rain
04/11:33pm WSW 19-30 kts 16.3°c 1017.3 hPa 61% 0.2mm
04/11:30pm WSW 18-25 kts 16.2°c 1017.3 hPa 61% 0.2mm
04/11:09pm WSW 19-32 kts 16.3°c 1017.3 hPa 61% 0.2mm
04/11:00pm WSW 19-26 kts 16.1°c 1017.3 hPa 62% 0.2mm
04/10:39pm W 17-27 kts 16.0°c 1017.3 hPa 65% 0.2mm
04/10:30pm WSW 18-27 kts 15.2°c 1017.4 hPa 76% 0.2mm
04/10:00pm WSW 20-33 kts 16.8°c 1017.2 hPa 60% 0.2mm
04/09:43pm WSW 19-31 kts 17.1°c 1017.4 hPa 59% 0.2mm
04/09:30pm WSW 20-27 kts 17.0°c 1017.5 hPa 59% 0.2mm
04/09:06pm WSW 17-27 kts 16.8°c 1017.5 hPa 66% 0.2mm
04/09:00pm WSW 19-27 kts 16.7°c 1017.5 hPa 66% 0.2mm
04/08:43pm WSW 19-30 kts 16.6°c 1017.6 hPa 69% 0.2mm
04/08:30pm WSW 20-28 kts 17.2°c 1017.5 hPa 58% 0.2mm
04/08:15pm WSW 19-29 kts 17.2°c 1017.6 hPa 57% 0.2mm
04/08:00pm W 21-28 kts 17.3°c 1017.6 hPa 59% 0.2mm
04/07:30pm WSW 21-32 kts 17.3°c 1017.6 hPa 56% 0.2mm
04/07:00pm W 19-29 kts 17.3°c 1017.4 hPa 64% 0.2mm
04/06:39pm WSW 19-31 kts 17.2°c 1017.3 hPa 66% 0.2mm
04/06:30pm WSW 21-28 kts 17.5°c 1017.2 hPa 66% 0.2mm
04/06:00pm W 18-28 kts 17.4°c 1017.1 hPa 66% 0.2mm
04/05:54pm WSW 18-28 kts 17.2°c 1017.1 hPa 69% 0.2mm
04/05:30pm WSW 18-26 kts 17.3°c 1016.9 hPa 65% 0.2mm
04/05:03pm WSW 19-29 kts 17.7°c 1016.5 hPa 61% 0.2mm
04/05:00pm WSW 19-28 kts 17.6°c 1016.5 hPa 62% 0.2mm
04/04:33pm WSW 19-30 kts 17.7°c 1016.2 hPa 67% 0.2mm
04/04:30pm WSW 20-27 kts 17.6°c 1016.2 hPa 67% 0.2mm
04/04:13pm W 19-29 kts 17.9°c 1016.0 hPa 66% 0.2mm
04/04:00pm W 19-25 kts 18.2°c 1016.0 hPa 59% 0.2mm
04/03:30pm WSW 19-29 kts 18.5°c 1015.8 hPa 60% 0.2mm
04/03:03pm WSW 19-30 kts 18.8°c 1015.5 hPa 56% 0.2mm
04/03:00pm W 18-25 kts 18.8°c 1015.5 hPa 59% 0.2mm
04/02:30pm WSW 18-26 kts 19.1°c 1015.5 hPa 61% 0.2mm
04/02:23pm WSW 18-28 kts 19.2°c 1015.5 hPa 63% 0.2mm
04/02:00pm WSW 17-23 kts 18.7°c 1015.5 hPa 68% 0.2mm
04/01:30pm W 18-23 kts 19.8°c 1015.2 hPa 65% 0.2mm
04/01:02pm W 17-27 kts 19.8°c 1015.4 hPa 68% 0.2mm
04/01:00pm W 17-24 kts 19.9°c 1015.4 hPa 66% 0.2mm
04/12:30pm WSW 17-24 kts 20.4°c 1015.5 hPa 67% 0.2mm
04/12:00pm W 17-24 kts 20.5°c 1015.4 hPa 62% 0.2mm
04/11:30am W 15-21 kts 20.1°c 1015.6 hPa 67% 0.2mm
04/11:00am W 16-24 kts 20.1°c 1015.9 hPa 65% 0.2mm
04/10:30am W 17-26 kts 21.3°c 1016.2 hPa 67% 0.2mm
04/10:21am W 16-26 kts 20.7°c 1016.3 hPa 65% 0.2mm
04/10:18am W 16-22 kts 20.7°c 1016.3 hPa 66% 0.2mm
04/10:01am W 16-21 kts 20.7°c 1016.5 hPa 64% 0.2mm
04/10:00am W 16-21 kts 20.7°c 1016.6 hPa 63% 0.2mm
04/09:30am W 17-23 kts 20.8°c 1016.9 hPa 65% 0.0mm
04/09:00am W 13-18 kts 20.9°c 1017.1 hPa 67% 0.0mm
04/08:30am W 14-19 kts 20.3°c 1017.2 hPa 66% 0.0mm
04/08:00am W 14-19 kts 19.7°c 1017.3 hPa 72% 0.2mm
04/07:30am W 12-17 kts 19.2°c 1017.1 hPa 73% 0.2mm
04/07:00am W 12-17 kts 18.8°c 1017.0 hPa 83% 0.2mm
04/06:30am W 13-18 kts 18.2°c 1016.7 hPa 82% 0.2mm
04/06:00am WNW 9-14 kts 17.3°c 1016.4 hPa 78% 0.2mm
04/05:55am WNW 10-15 kts 17.0°c 1016.3 hPa 78% 0.2mm
04/05:35am W 15-25 kts 16.7°c 1016.4 hPa 82% 0.2mm
04/05:33am W 15-25 kts 17.0°c 1016.3 hPa 82% 0.2mm
04/05:30am WSW 15-24 kts 17.1°c 1016.3 hPa 83% 0.2mm
04/05:17am W 15-28 kts 17.8°c 1016.0 hPa 80% 0.2mm
04/05:00am WNW 13-18 kts 18.4°c 1015.7 hPa 80% 0.2mm
04/04:30am WNW 11-15 kts 18.6°c 1015.4 hPa 73% 0.2mm
04/04:00am W 16-21 kts 17.8°c 1015.2 hPa 78% 0.2mm
04/03:45am WNW 16-26 kts 19.2°c 1015.0 hPa 75% 0.2mm
04/03:30am WNW 16-22 kts 19.2°c 1015.0 hPa 75% 0.2mm
04/03:00am W 17-22 kts 19.1°c 1015.1 hPa 76% 0.2mm
04/02:30am WNW 15-20 kts 18.9°c 1015.2 hPa 74% 0.2mm
04/02:00am WNW 12-17 kts 19.0°c 1015.4 hPa 75% 0.2mm
04/01:30am WNW 12-19 kts 18.9°c 1015.5 hPa 73% 0.2mm
04/01:00am WNW 12-18 kts 18.8°c 1015.7 hPa 73% 0.2mm
04/12:30am WNW 12-19 kts 18.7°c 1016.1 hPa 70% 0.2mm
04/12:00am WNW 12-17 kts 18.6°c 1016.3 hPa 71% 0.2mm
Time Wind Speed Temp Pressure Rel. Hum Rain
03/11:30pm WNW 11-16 kts 18.8°c 1016.5 hPa 71% 0.2mm
03/11:00pm WNW 12-17 kts 18.7°c 1016.6 hPa 70% 0.2mm
03/10:30pm W 13-18 kts 18.8°c 1016.7 hPa 69% 0.2mm
03/10:00pm W 12-17 kts 18.8°c 1016.9 hPa 67% 0.2mm
03/09:30pm W 12-18 kts 18.9°c 1016.8 hPa 71% 0.2mm
03/09:00pm W 13-20 kts 18.9°c 1016.7 hPa 71% 0.2mm
03/08:30pm W 14-18 kts 18.9°c 1016.6 hPa 68% 0.2mm
03/08:00pm W 13-18 kts 18.9°c 1016.6 hPa 72% 0.2mm
03/07:30pm W 13-17 kts 18.9°c 1016.3 hPa 72% 0.2mm
03/07:00pm W 15-23 kts 18.9°c 1015.9 hPa 72% 0.2mm
03/06:30pm W 13-19 kts 18.8°c 1015.6 hPa 72% 0.2mm
03/06:00pm W 15-22 kts 18.8°c 1015.5 hPa 70% 0.2mm
03/05:30pm W 16-21 kts 19.1°c 1015.4 hPa 67% 0.2mm
03/05:00pm W 15-20 kts 19.1°c 1015.0 hPa 72% 0.2mm
03/04:30pm W 15-21 kts 19.1°c 1014.9 hPa 68% 0.2mm
03/04:00pm W 16-26 kts 19.2°c 1014.7 hPa 67% 0.2mm
03/03:30pm W 16-27 kts 19.6°c 1014.6 hPa 67% 0.2mm
03/03:29pm W 15-26 kts 19.5°c 1014.5 hPa 67% 0.2mm
03/03:00pm W 19-25 kts 19.9°c 1014.2 hPa 64% 0.2mm
03/02:30pm W 18-26 kts 20.3°c 1014.0 hPa 63% 0.2mm
03/02:02pm W 18-28 kts 20.3°c 1013.9 hPa 63% 0.2mm
03/02:00pm W 18-25 kts 20.4°c 1013.8 hPa 63% 0.2mm
03/01:46pm W 17-27 kts 20.3°c 1013.8 hPa 62% 0.2mm
03/01:30pm W 19-26 kts 20.4°c 1013.9 hPa 62% 0.2mm
03/01:00pm W 18-26 kts 20.6°c 1013.9 hPa 60% 0.2mm
03/12:30pm W 20-27 kts 20.6°c 1014.3 hPa 59% 0.2mm
03/12:07pm W 18-28 kts 20.6°c 1014.3 hPa 59% 0.2mm
03/12:00pm W 19-24 kts 21.0°c 1014.4 hPa 62% 0.2mm
03/11:30am W 19-27 kts 20.7°c 1014.9 hPa 63% 0.2mm
03/11:00am W 16-23 kts 20.9°c 1015.4 hPa 65% 0.2mm
03/10:30am W 20-28 kts 20.6°c 1015.8 hPa 61% 0.0mm
03/10:00am W 18-28 kts 20.6°c 1016.2 hPa 69% 0.0mm
03/09:52am W 17-28 kts 20.5°c 1016.1 hPa 69% 0.0mm
03/09:49am W 17-22 kts 20.5°c 1016.1 hPa 69% 0.0mm
03/09:33am W 16-27 kts 19.8°c 1016.2 hPa 79% 0.0mm
03/09:30am W 17-23 kts 19.8°c 1016.2 hPa 82% 0.0mm
03/09:08am W 17-26 kts 19.5°c 1016.2 hPa 83% 0.0mm
03/09:00am W 17-23 kts 20.0°c 1016.3 hPa 82% 0.0mm
03/08:35am W 16-21 kts 18.9°c 1016.5 hPa 89% 0.0mm
03/08:31am W 16-21 kts 18.8°c 1016.4 hPa 89% 0.0mm
03/08:30am W 16-21 kts 18.7°c 1016.5 hPa 89% 0.0mm
03/08:10am W 18-29 kts 17.9°c 1016.4 hPa 89% 0.0mm
03/08:04am WNW 18-29 kts 19.4°c 1016.3 hPa 84% 0.0mm
03/08:00am NW 17-23 kts 20.6°c 1015.9 hPa 87% 1.8mm
03/07:53am WNW 16-23 kts 20.6°c 1015.8 hPa 87% 1.8mm
03/07:37am NW 15-27 kts 20.8°c 1015.6 hPa 86% 1.8mm
03/07:30am NW 13-21 kts 20.7°c 1015.6 hPa 87% 1.8mm
03/07:00am NW 12-20 kts 20.0°c 1015.5 hPa 87% 1.8mm
03/06:30am NW 11-18 kts 19.9°c 1015.4 hPa 87% 1.8mm
03/06:00am NW 10-16 kts 19.5°c 1015.0 hPa 87% 1.8mm
03/05:30am NNW 9-15 kts 19.2°c 1014.5 hPa 86% 1.8mm
03/05:00am NW 8-14 kts 19.0°c 1014.4 hPa 88% 1.8mm
03/04:30am NW 8-13 kts 19.2°c 1014.0 hPa 89% 1.8mm
03/04:00am NW 9-17 kts 19.2°c 1014.0 hPa 88% 1.8mm
03/03:51am NW 10-17 kts 19.2°c 1013.9 hPa 88% 1.8mm
03/03:30am NW 11-18 kts 19.4°c 1014.0 hPa 89% 1.8mm
03/03:00am NW 13-19 kts 19.8°c 1014.1 hPa 91% 1.8mm
03/02:30am NW 10-18 kts 19.8°c 1014.1 hPa 92% 1.8mm
03/02:27am NNW 10-18 kts 19.8°c 1014.1 hPa 92% 1.8mm
03/02:22am NNW 10-16 kts 19.7°c 1014.0 hPa 93% 1.8mm
03/02:00am NNW 8-15 kts 19.8°c 1014.0 hPa 93% 1.8mm
03/01:30am NNW 9-16 kts 19.9°c 1014.5 hPa 93% 1.8mm
03/01:00am NNW 9-16 kts 19.9°c 1015.2 hPa 93% 1.8mm
03/12:30am N 11-19 kts 19.8°c 1016.1 hPa 94% 1.8mm
03/12:00am NNE 11-15 kts 19.3°c 1015.9 hPa 93% 1.8mm